TimeEST,TemperatureF,Dew PointF,Humidity,Sea Level PressureIn,VisibilityMPH,Wind Direction,Wind SpeedMPH,Gust SpeedMPH,PrecipitationIn,Events,Conditions,WindDirDegrees,DateUTC
12:53 AM,46.0,37.9,73,30.16,10.0,Calm,Calm,-,N/A,,Clear,0,2013-01-22 05:53:00
1:53 AM,46.0,37.0,71,30.17,10.0,Calm,Calm,-,N/A,,Clear,0,2013-01-22 06:53:00
2:53 AM,44.1,36.0,73,30.17,10.0,Calm,Calm,-,N/A,,Clear,0,2013-01-22 07:53:00
3:53 AM,48.0,34.0,58,30.18,10.0,North,11.5,-,N/A,,Clear,10,2013-01-22 08:53:00
4:53 AM,45.0,33.1,63,30.20,10.0,North,6.9,-,N/A,,Clear,360,2013-01-22 09:53:00
5:53 AM,44.1,30.9,60,30.22,10.0,North,6.9,-,N/A,,Clear,10,2013-01-22 10:53:00
6:53 AM,42.1,30.9,65,30.26,10.0,North,8.1,-,N/A,,Scattered Clouds,10,2013-01-22 11:53:00
7:53 AM,42.1,30.0,62,30.28,10.0,Calm,Calm,-,N/A,,Scattered Clouds,0,2013-01-22 12:53:00
8:53 AM,46.0,28.0,50,30.31,10.0,Calm,Calm,-,N/A,,Mostly Cloudy,0,2013-01-22 13:53:00
9:53 AM,48.0,23.0,37,30.33,10.0,North,9.2,-,N/A,,Mostly Cloudy,10,2013-01-22 14:53:00
10:53 AM,53.1,23.0,31,30.35,10.0,NNE,11.5,17.3,N/A,,Mostly Cloudy,20,2013-01-22 15:53:00
11:53 AM,57.0,21.9,26,30.34,10.0,North,10.4,-,N/A,,Mostly Cloudy,10,2013-01-22 16:53:00
12:53 PM,60.1,19.9,21,30.31,10.0,North,6.9,16.1,N/A,,Mostly Cloudy,360,2013-01-22 17:53:00
1:53 PM,61.0,21.9,22,30.29,10.0,Variable,5.8,-,N/A,,Mostly Cloudy,0,2013-01-22 18:53:00
2:53 PM,62.1,21.9,21,30.28,10.0,North,11.5,16.1,N/A,,Scattered Clouds,360,2013-01-22 19:53:00
3:53 PM,62.1,23.0,22,30.28,10.0,Variable,5.8,-,N/A,,Scattered Clouds,0,2013-01-22 20:53:00
4:53 PM,60.1,24.1,25,30.29,10.0,Calm,Calm,-,N/A,,Scattered Clouds,0,2013-01-22 21:53:00
5:53 PM,54.0,26.1,34,30.31,10.0,WNW,3.5,-,N/A,,Clear,300,2013-01-22 22:53:00
6:53 PM,46.0,30.9,56,30.31,10.0,Calm,Calm,-,N/A,,Clear,0,2013-01-22 23:53:00
7:53 PM,42.1,28.9,60,30.32,10.0,Calm,Calm,-,N/A,,Clear,0,2013-01-23 00:53:00
8:53 PM,39.0,28.9,67,30.32,-9999.0,Calm,Calm,-,N/A,,Clear,0,2013-01-23 01:53:00
9:53 PM,37.0,28.9,73,30.34,-9999.0,Calm,Calm,-,N/A,,Clear,0,2013-01-23 02:53:00
10:53 PM,36.0,28.9,76,30.35,-9999.0,Calm,Calm,-,N/A,,Clear,0,2013-01-23 03:53:00
11:53 PM,34.0,28.0,79,30.36,-9999.0,Calm,Calm,-,N/A,,Clear,0,2013-01-23 04:53:00